Weather History for KCHA - December, 2013

Change the Weather History Date:

Saturday, December 21, 2013

  Actual Average Record
Temperature  
Mean Temperature 64 °F 41 °F  
Max Temperature 71 °F 51 °F 72 °F (1967)
Min Temperature 56 °F 32 °F 5 °F (1901)
Degree Days  
Heating Degree Days 1 24  
Month to date heating degree days 384 454  
Since 1 July heating degree days 1015 1043  
Cooling Degree Days 0 0  
Month to date cooling degree days 4 0  
Year to date cooling degree days 1756 1741  
Growing Degree Days 13 (Base 50)    
Moisture  
Dew Point 57 °F    
Average Humidity 85    
Maximum Humidity 97    
Minimum Humidity 72    
Precipitation  
Precipitation 0.36 in 0.15 in 2.88 in (1881)
Month to date precipitation 4.69 3.43  
Year to date precipitation 65.48 51.01  
Snow  
Snow 0.00 in 0.00 in - ()
Month to date snowfall 0.0 0.1  
Since 1 July snowfall T 0.1  
Snow Depth 0.00 in    
Sea Level Pressure  
Sea Level Pressure 29.93 in    
Wind  
Wind Speed 4 mph (SSE)    
Max Wind Speed 20 mph    
Max Gust Speed 29 mph    
Visibility 6 miles    
Events Rain    
T = Trace of Precipitation, MM = Missing Value Source: NWS Daily Summary

Daily Weather History Graph

Daily Weather History Graph

Search for Another Location

Airport or City:

Trip Planner

Search our weather history database for the weather conditions in past years. The results will help you decide how hot, cold, wet, or windy it might be!

Date:

Astronomy

Dec. 21, 2013 Rise Set
Actual Time 7:45 AM EST 5:33 PM EST
Civil Twilight 7:16 AM EST 6:01 PM EST
Nautical Twilight 6:45 AM EST 6:33 PM EST
Astronomical Twilight 6:14 AM EST 7:03 PM EST
Moon 9:40 PM EST (12/21) 10:18 AM EST (12/21)
Length of Visible Light 10h 44m
Length of Day
9h 47m
Waning Gibbous, 84% of the Moon is Illuminated
Dec 21
Waning Gibbous
Dec 25
Last Quarter
Jan 1
New
Jan 7
First Quarter
Jan 15
Full

Hourly Weather History & Observations

Time (EST) Temp. Dew Point Humidity Pressure Visibility Wind Dir Wind Speed Gust Speed Precip Events Conditions
12:16 AM 59.0 °F 51.8 °F 77% 30.07 in 10.0 mi Calm Calm - N/A   Overcast
12:53 AM 59.0 °F 51.1 °F 75% 30.05 in 10.0 mi Calm Calm - N/A   Overcast
1:53 AM 60.1 °F 52.0 °F 75% 30.04 in 10.0 mi South 4.6 mph - N/A   Overcast
2:53 AM 59.0 °F 52.0 °F 78% 30.04 in 10.0 mi Calm Calm - N/A   Overcast
3:53 AM 59.0 °F 52.0 °F 78% 30.02 in 10.0 mi South 3.5 mph - N/A   Overcast
4:53 AM 59.0 °F 52.0 °F 78% 30.01 in 10.0 mi Calm Calm - N/A   Overcast
5:53 AM 57.0 °F 52.0 °F 83% 30.00 in 10.0 mi Calm Calm - N/A   Overcast
6:53 AM 57.0 °F 52.0 °F 83% 29.99 in 10.0 mi Calm Calm - N/A   Overcast
7:53 AM 55.9 °F 52.0 °F 87% 29.97 in 7.0 mi Calm Calm - N/A   Overcast
8:15 AM 57.2 °F 51.8 °F 82% 29.99 in 7.0 mi Calm Calm - N/A   Overcast
8:53 AM 55.9 °F 53.1 °F 90% 29.98 in 4.0 mi Calm Calm - 0.00 in Rain Light Rain
9:41 AM 57.2 °F 53.6 °F 88% 29.97 in 2.5 mi NNW 3.5 mph - 0.00 in Rain Light Rain
9:53 AM 57.0 °F 54.0 °F 89% 29.96 in 2.5 mi Calm Calm - 0.00 in   Overcast
10:24 AM 57.2 °F 55.4 °F 94% 29.97 in 4.0 mi WNW 3.5 mph - 0.01 in   Overcast
10:53 AM 57.9 °F 55.9 °F 93% 29.95 in 3.0 mi Calm Calm - 0.01 in   Overcast
11:23 AM 59.0 °F 57.2 °F 94% 29.95 in 2.5 mi North 3.5 mph - 0.00 in Rain Light Rain
11:53 AM 60.1 °F 57.9 °F 93% 29.93 in 1.5 mi Calm Calm - 0.00 in Rain Light Rain
12:00 PM 59.0 °F 57.2 °F 94% 29.94 in 1.5 mi Calm Calm - 0.00 in Rain Light Rain
12:53 PM 60.1 °F 57.9 °F 93% 29.91 in 1.5 mi Calm Calm - 0.01 in Rain Light Rain
1:53 PM 61.0 °F 59.0 °F 93% 29.87 in 1.5 mi Calm Calm - 0.00 in Rain Light Rain
2:43 PM 62.6 °F 60.8 °F 94% 29.89 in 1.5 mi Calm Calm - 0.01 in Rain Light Rain
2:51 PM 62.6 °F 60.8 °F 94% 29.88 in 3.0 mi East 3.5 mph - 0.01 in Rain Light Rain
2:53 PM 62.1 °F 60.1 °F 93% 29.87 in 6.0 mi East 3.5 mph - 0.01 in Rain Light Rain
3:53 PM 62.1 °F 60.1 °F 93% 29.85 in 6.0 mi Calm Calm - 0.01 in Rain Light Rain
4:53 PM 68.0 °F 63.0 °F 84% 29.84 in 10.0 mi SSE 8.1 mph - 0.00 in   Overcast
5:53 PM 68.0 °F 63.0 °F 84% 29.85 in 10.0 mi SSE 4.6 mph - 0.00 in   Overcast
6:53 PM 70.0 °F 63.0 °F 78% 29.85 in 9.0 mi SSE 11.5 mph - 0.00 in Rain Light Rain
7:53 PM 71.1 °F 63.0 °F 75% 29.84 in 9.0 mi SSE 11.5 mph 24.2 mph 0.00 in   Overcast
8:53 PM 70.0 °F 64.0 °F 81% 29.83 in 9.0 mi South 17.3 mph 28.8 mph 0.00 in Rain Light Rain
9:53 PM 68.0 °F 64.0 °F 87% 29.84 in 7.0 mi South 10.4 mph 18.4 mph 0.02 in   Overcast
10:53 PM 68.0 °F 64.9 °F 90% 29.84 in 5.0 mi South 8.1 mph - 0.04 in Rain Light Rain
11:04 PM 68.0 °F 64.4 °F 88% 29.86 in 1.0 mi South 9.2 mph - 0.05 in Rain Heavy Rain
11:14 PM 68.0 °F 64.4 °F 88% 29.87 in 3.0 mi South 11.5 mph - 0.26 in Rain Rain
11:53 PM 68.0 °F 64.9 °F 90% 29.84 in 7.0 mi South 11.5 mph - 0.26 in   Mostly Cloudy